Location: Maiden
(35.5760°N, 81.2120°W)
Time: 11:51:04
(UTC-04:00)

Cosmos 2279 Rocket - Pass Details

Date: 14 June 2018
Orbit: 964 x 979 km, 82.9° (Epoch: 18 September)

Event Time Altitude Azimuth Distance (km) Brightness Sun altitude
Rises 21:14:51 0° 171° (S) 3,640 6.6 -6.5°
Reaches altitude 10° 21:17:23 10° 166° (SSE) 2,696 5.9 -6.9°
Maximum altitude 21:23:21 53° 91° (E) 1,168 4.2 -7.9°
Drops below altitude 10° 21:29:20 10° 17° (NNE) 2,707 6.6 -8.9°
Sets 21:31:54 0° 12° (NNE) 3,657 7.4 -9.3°
